• In Switzerland
  • List of Countries
  • For 7 days
  • Water Temperature
  • Satellite Maps
  • Weather Map
  • Weather Widgets
  • user-avatar
    Login

    Hourly Weather Partizanskaya

    Today, 24 September, Monday

    Time Temperature Precipitation Wind Pressure Humidity
    00:00 +7°C° 0 mm 4 mps 748 mmHg 91%
    01:00 +7°C° 0 mm 4 mps 748 mmHg 91%
    02:00 +7°C° 0 mm 4 mps 748 mmHg 92%
    03:00 +7°C° 0 mm 4 mps 748 mmHg 92%
    04:00 +8°C° 0 mm 3 mps 748 mmHg 93%
    05:00 +8°C° 0 mm 3 mps 748 mmHg 93%
    06:00 +8°C° 0.1 mm 3 mps 748 mmHg 92%
    07:00 +8°C° 0.1 mm 2 mps 748 mmHg 91%
    08:00 +8°C° 0.1 mm 2 mps 748 mmHg 90%
    09:00 +9°C° 0.1 mm 2 mps 748 mmHg 86%
    10:00 +11°C° 0.1 mm 1 mps 748 mmHg 82%
    11:00 +12°C° 0.1 mm 1 mps 748 mmHg 78%
    12:00 +12°C° 0.3 mm 2 mps 749 mmHg 76%
    13:00 +12°C° 0.3 mm 2 mps 749 mmHg 74%
    14:00 +12°C° 0.3 mm 3 mps 749 mmHg 73%
    15:00 +11°C° 0.2 mm 3 mps 749 mmHg 74%
    16:00 +10°C° 0.2 mm 4 mps 749 mmHg 76%
    17:00 +10°C° 0.2 mm 4 mps 749 mmHg 77%
    18:00 +8°C° 0 mm 4 mps 750 mmHg 79%
    19:00 +7°C° 0 mm 4 mps 750 mmHg 80%
    20:00 +6°C° 0 mm 4 mps 751 mmHg 82%
    21:00 +6°C° 0 mm 4 mps 751 mmHg 82%
    22:00 +6°C° 0 mm 4 mps 751 mmHg 83%
    23:00 +6°C° 0 mm 4 mps 752 mmHg 83%

    Tomorrow, 25 September, Tuesday

    Time Temperature Precipitation Wind Pressure Humidity
    00:00 +6°C° 0.1 mm 5 mps 752 mmHg 84%
    01:00 +5°C° 0.1 mm 5 mps 752 mmHg 84%
    02:00 +5°C° 0.1 mm 5 mps 753 mmHg 85%
    03:00 +5°C° 0.1 mm 5 mps 753 mmHg 84%
    04:00 +5°C° 0.1 mm 5 mps 754 mmHg 83%
    05:00 +4°C° 0.1 mm 6 mps 754 mmHg 83%
    06:00 +4°C° 0.1 mm 6 mps 755 mmHg 78%
    07:00 +5°C° 0.1 mm 6 mps 756 mmHg 74%
    08:00 +5°C° 0.1 mm 7 mps 757 mmHg 70%
    09:00 +5°C° 0.1 mm 7 mps 757 mmHg 65%
    10:00 +6°C° 0.1 mm 7 mps 758 mmHg 59%
    11:00 +7°C° 0.1 mm 8 mps 759 mmHg 54%
    12:00 +7°C° 0.1 mm 8 mps 759 mmHg 53%
    13:00 +6°C° 0.1 mm 7 mps 760 mmHg 51%
    14:00 +6°C° 0.1 mm 7 mps 760 mmHg 49%
    15:00 +6°C° 0 mm 7 mps 760 mmHg 51%
    16:00 +7°C° 0 mm 6 mps 761 mmHg 53%
    17:00 +6°C° 0 mm 5 mps 761 mmHg 55%
    18:00 +6°C° 0 mm 5 mps 762 mmHg 58%
    19:00 +5°C° 0 mm 4 mps 762 mmHg 61%
    20:00 +5°C° 0 mm 4 mps 763 mmHg 64%
    21:00 +5°C° 0 mm 4 mps 763 mmHg 69%
    22:00 +5°C° 0 mm 4 mps 763 mmHg 73%
    23:00 +5°C° 0 mm 4 mps 764 mmHg 77%

    Day after tomorrow, 26 September, Wednesday

    Time Temperature Precipitation Wind Pressure Humidity
    00:00 +5°C° 0 mm 4 mps 764 mmHg 80%
    01:00 +5°C° 0 mm 4 mps 764 mmHg 83%
    02:00 +5°C° 0 mm 4 mps 764 mmHg 87%
    03:00 +4°C° 0 mm 4 mps 763 mmHg 85%
    04:00 +4°C° 0 mm 4 mps 763 mmHg 84%
    05:00 +4°C° 0 mm 4 mps 763 mmHg 83%
    06:00 +5°C° 0 mm 5 mps 762 mmHg 79%
    07:00 +5°C° 0 mm 6 mps 762 mmHg 75%
    08:00 +7°C° 0 mm 6 mps 761 mmHg 70%
    09:00 +8°C° 0.1 mm 7 mps 760 mmHg 70%
    10:00 +8°C° 0.1 mm 7 mps 760 mmHg 71%
    11:00 +9°C° 0.1 mm 8 mps 759 mmHg 71%
    12:00 +7°C° 1.4 mm 8 mps 757 mmHg 77%
    13:00 +7°C° 1.4 mm 9 mps 756 mmHg 82%
    14:00 +7°C° 1.4 mm 9 mps 755 mmHg 88%
    15:00 +7°C° 2.3 mm 9 mps 753 mmHg 88%
    16:00 +7°C° 2.3 mm 10 mps 752 mmHg 89%
    17:00 +7°C° 2.3 mm 10 mps 750 mmHg 89%
    18:00 +8°C° 1.8 mm 9 mps 750 mmHg 90%
    19:00 +8°C° 1.8 mm 9 mps 749 mmHg 91%
    20:00 +10°C° 1.8 mm 8 mps 748 mmHg 91%
    21:00 +9°C° 0.9 mm 7 mps 748 mmHg 88%
    22:00 +8°C° 0.9 mm 6 mps 748 mmHg 85%
    23:00 +7°C° 0.9 mm 5 mps 748 mmHg 82%

    27 September, Thursday

    Time Temperature Precipitation Wind Pressure Humidity
    00:00 +7°C° 0 mm 5 mps 749 mmHg 82%
    01:00 +7°C° 0 mm 5 mps 749 mmHg 81%
    02:00 +6°C° 0 mm 5 mps 750 mmHg 80%
    03:00 +6°C° 0 mm 5 mps 750 mmHg 80%
    04:00 +6°C° 0 mm 5 mps 750 mmHg 79%
    05:00 +5°C° 0 mm 6 mps 750 mmHg 79%
    06:00 +7°C° 0 mm 5 mps 750 mmHg 77%
    07:00 +7°C° 0 mm 5 mps 750 mmHg 75%
    08:00 +7°C° 0 mm 5 mps 750 mmHg 73%
    09:00 +9°C° 0 mm 6 mps 750 mmHg 67%
    10:00 +10°C° 0 mm 6 mps 750 mmHg 61%
    11:00 +11°C° 0 mm 6 mps 750 mmHg 55%
    12:00 +11°C° 0 mm 6 mps 750 mmHg 54%
    13:00 +11°C° 0 mm 6 mps 750 mmHg 53%
    14:00 +13°C° 0 mm 6 mps 750 mmHg 51%
    15:00 +12°C° 0 mm 5 mps 750 mmHg 55%
    16:00 +12°C° 0 mm 4 mps 750 mmHg 60%
    17:00 +11°C° 0 mm 3 mps 749 mmHg 64%
    18:00 +10°C° 0.1 mm 3 mps 749 mmHg 69%
    19:00 +10°C° 0.1 mm 3 mps 749 mmHg 74%
    20:00 +9°C° 0.1 mm 3 mps 748 mmHg 79%
    21:00 +8°C° 1 mm 3 mps 747 mmHg 83%
    22:00 +8°C° 1 mm 2 mps 747 mmHg 88%
    23:00 +7°C° 1 mm 2 mps 746 mmHg 93%

    28 September, Friday

    Time Temperature Precipitation Wind Pressure Humidity
    00:00 +7°C° 0.6 mm 2 mps 746 mmHg 93%
    01:00 +7°C° 0.6 mm 3 mps 746 mmHg 92%
    02:00 +7°C° 0.6 mm 3 mps 746 mmHg 92%
    03:00 +7°C° 0 mm 3 mps 746 mmHg 91%
    04:00 +6°C° 0 mm 4 mps 747 mmHg 90%
    05:00 +6°C° 0 mm 4 mps 747 mmHg 89%
    06:00 +6°C° 0.2 mm 5 mps 748 mmHg 87%
    07:00 +7°C° 0.2 mm 5 mps 748 mmHg 85%
    08:00 +7°C° 0.2 mm 6 mps 749 mmHg 83%
    09:00 +7°C° 0.3 mm 6 mps 750 mmHg 79%
    10:00 +8°C° 0.3 mm 6 mps 751 mmHg 75%
    11:00 +8°C° 0.3 mm 6 mps 751 mmHg 72%
    12:00 +8°C° 0.2 mm 6 mps 752 mmHg 69%
    13:00 +8°C° 0.2 mm 6 mps 753 mmHg 66%
    14:00 +8°C° 0.2 mm 6 mps 754 mmHg 64%
    15:00 +8°C° 0.1 mm 6 mps 754 mmHg 65%
    16:00 +7°C° 0.1 mm 5 mps 754 mmHg 67%
    17:00 +6°C° 0.1 mm 5 mps 755 mmHg 69%
    18:00 +6°C° 0 mm 5 mps 756 mmHg 70%
    19:00 +5°C° 0 mm 5 mps 756 mmHg 72%
    20:00 +3°C° 0 mm 5 mps 757 mmHg 74%
    21:00 +3°C° 0.1 mm 5 mps 757 mmHg 75%
    22:00 +3°C° 0.1 mm 5 mps 758 mmHg 75%
    23:00 +4°C° 0.1 mm 4 mps 758 mmHg 76%

    29 September, Saturday

    Time Temperature Precipitation Wind Pressure Humidity
    00:00 +3°C° 0 mm 4 mps 759 mmHg 77%
    01:00 +3°C° 0 mm 4 mps 759 mmHg 77%
    02:00 +2°C° 0 mm 3 mps 759 mmHg 78%
    03:00 +2°C° 0 mm 3 mps 759 mmHg 79%
    04:00 +1°C° 0 mm 4 mps 759 mmHg 80%
    05:00 +1°C° 0 mm 4 mps 760 mmHg 80%
    06:00 +2°C° 0.1 mm 5 mps 760 mmHg 78%
    07:00 +3°C° 0.1 mm 5 mps 760 mmHg 76%
    08:00 +4°C° 0.1 mm 6 mps 760 mmHg 74%
    09:00 +5°C° 0.1 mm 6 mps 761 mmHg 70%
    10:00 +5°C° 0.1 mm 6 mps 761 mmHg 66%
    11:00 +6°C° 0.1 mm 7 mps 762 mmHg 63%
    12:00 +7°C° 0 mm 6 mps 762 mmHg 59%
    13:00 +7°C° 0 mm 6 mps 762 mmHg 55%
    14:00 +8°C° 0 mm 6 mps 763 mmHg 51%
    15:00 +7°C° 0 mm 5 mps 763 mmHg 53%
    16:00 +6°C° 0 mm 4 mps 763 mmHg 55%
    17:00 +7°C° 0 mm 3 mps 764 mmHg 56%
    18:00 +5°C° 0 mm 3 mps 764 mmHg 60%
    19:00 +4°C° 0 mm 3 mps 765 mmHg 64%
    20:00 +3°C° 0 mm 3 mps 765 mmHg 68%
    21:00 +3°C° 0 mm 3 mps 765 mmHg 71%
    22:00 +3°C° 0 mm 3 mps 766 mmHg 74%
    23:00 +3°C° 0 mm 3 mps 766 mmHg 77%
    Show more